Location: Newark
(45.9456°N, 15.4064°E)
Time: 18:39:37
(UTC+00:00)

SR - Pass Details

Date: 04 February 2020
Orbit: 575 x 880 km, 66.7° (Epoch: 26 February)

Event Time Altitude Azimuth Distance (km) Brightness Sun altitude
Rises 17:27:36 0° 172° (S) 3,409 ? -14.2°
Reaches altitude 10° 17:30:28 10° 158° (SSE) 2,504 ? -14.7°
Maximum altitude 17:35:01 24° 107° (ESE) 1,746 ? -15.5°
Enters shadow 17:35:55 23° 94° (E) 1,785 ? -15.6°
Drops below altitude 10° 17:39:36 10° 56° (ENE) 2,539 - -16.3°
Sets 17:42:32 0° 44° (NE) 3,468 - -16.8°
